RYR5268 LEZL-EHEH

Flight info

Callsign RYR5268
Flight time N/A
Altitude 36000
Route HIJ M30 PARKA N858 DGO L176 LUSEM DCT LULUT DCT ADABI DCT BOKNO UN858 VANAD UN874 ARSAF DCT EGOZE DCT CMB DCT VEKIN DCT ADUTO N873 FERDI Y18 DENUT
Aircraft B738/M-SDE2E3FGHIRWXY/LB1

Departure

Time 2026-04-30 13:18
Airport Seville Airport (LEZL)

Arrival

Time N/A
Airport Eindhoven Airport (EHEH)
Time Latitude Longitude Altitude Speed Heading
2026-04-30 12:35 37.42154 -5.90028 93 ft 0 kts 315°
2026-04-30 13:02 37.42150 -5.90023 93 ft 2 kts 315°
2026-04-30 13:03 37.42142 -5.90014 95 ft 2 kts 315°
2026-04-30 13:03 37.42131 -5.89999 93 ft 2 kts 315°
2026-04-30 13:03 37.42119 -5.89985 93 ft 2 kts 327°
2026-04-30 13:03 37.42104 -5.89978 92 ft 1 kts 31°
2026-04-30 13:04 37.42098 -5.89984 93 ft 1 kts 47°
2026-04-30 13:04 37.42097 -5.89985 93 ft 0 kts 47°
2026-04-30 13:11 37.42102 -5.89976 92 ft 5 kts 57°
2026-04-30 13:11 37.42095 -5.89938 94 ft 5 kts 135°
2026-04-30 13:11 37.42064 -5.89916 93 ft 5 kts 156°
2026-04-30 13:11 37.42032 -5.89899 94 ft 5 kts 156°
2026-04-30 13:12 37.42000 -5.89874 98 ft 6 kts 137°
2026-04-30 13:12 37.41982 -5.89817 97 ft 9 kts 96°
2026-04-30 13:12 37.41981 -5.89714 96 ft 14 kts 90°
2026-04-30 13:13 37.41982 -5.89386 98 ft 22 kts 90°
2026-04-30 13:13 37.41983 -5.89191 99 ft 22 kts 89°
2026-04-30 13:13 37.41984 -5.88820 101 ft 21 kts 90°
2026-04-30 13:14 37.41985 -5.88642 103 ft 20 kts 90°
2026-04-30 13:14 37.41985 -5.88469 103 ft 19 kts 90°
2026-04-30 13:14 37.41987 -5.88141 105 ft 18 kts 90°
2026-04-30 13:15 37.41987 -5.87987 106 ft 18 kts 89°
2026-04-30 13:15 37.41990 -5.87619 108 ft 25 kts 91°
2026-04-30 13:15 37.41956 -5.87467 111 ft 11 kts 127°
2026-04-30 13:16 37.41891 -5.87427 114 ft 11 kts 179°
2026-04-30 13:16 37.41820 -5.87442 114 ft 10 kts 205°
2026-04-30 13:16 37.41800 -5.87501 116 ft 0 kts 268°
2026-04-30 13:17 37.41800 -5.87503 116 ft 0 kts 268°
2026-04-30 13:17 37.41800 -5.87717 112 ft 61 kts 270°
2026-04-30 13:17 37.41793 -5.89918 201 ft 175 kts 269°
2026-04-30 13:18 37.41799 -5.91477 888 ft 183 kts 270°
2026-04-30 13:18 37.42866 -5.94327 2457 ft 195 kts 318°
2026-04-30 13:18 37.43977 -5.95500 2729 ft 221 kts 320°
2026-04-30 13:19 37.45210 -5.96800 3080 ft 237 kts 320°
2026-04-30 13:19 37.46528 -5.98190 3435 ft 258 kts 320°
2026-04-30 13:19 37.47935 -5.99668 4048 ft 268 kts 320°
2026-04-30 13:19 37.49370 -6.01164 4990 ft 269 kts 319°
2026-04-30 13:20 37.50833 -6.02674 5819 ft 275 kts 319°
2026-04-30 13:20 37.52331 -6.04194 6640 ft 279 kts 319°
2026-04-30 13:20 37.53856 -6.05723 7428 ft 281 kts 319°
2026-04-30 13:20 37.55400 -6.07262 8066 ft 282 kts 319°
2026-04-30 13:21 37.56995 -6.08668 9039 ft 281 kts 333°
2026-04-30 13:21 37.58913 -6.09219 9827 ft 289 kts 360°
2026-04-30 13:21 37.60856 -6.08676 10499 ft 295 kts 25°
2026-04-30 13:22 37.64349 -6.05885 11946 ft 301 kts 34°
2026-04-30 13:22 37.66100 -6.04363 12483 ft 312 kts 36°
2026-04-30 13:22 37.69511 -6.00850 13877 ft 320 kts 40°
2026-04-30 13:23 37.71215 -5.99026 14541 ft 323 kts 40°
2026-04-30 13:23 37.74677 -5.95307 15815 ft 330 kts 41°
2026-04-30 13:24 37.78213 -5.91505 17023 ft 338 kts 41°
2026-04-30 13:24 37.81812 -5.87635 17055 ft 338 kts 41°
2026-04-30 13:25 37.85393 -5.83783 17064 ft 338 kts 41°
2026-04-30 13:25 37.88972 -5.79926 17066 ft 338 kts 41°
2026-04-30 13:26 37.94351 -5.74124 17063 ft 339 kts 41°
2026-04-30 13:26 37.97941 -5.70243 17070 ft 340 kts 41°
2026-04-30 13:27 38.01533 -5.66335 17077 ft 343 kts 42°
2026-04-30 13:28 38.06837 -5.60085 17187 ft 341 kts 43°
2026-04-30 13:28 38.10308 -5.56075 17153 ft 338 kts 42°
2026-04-30 13:28 38.12073 -5.54064 17089 ft 343 kts 41°
2026-04-30 13:29 38.15657 -5.50106 17074 ft 346 kts 41°
2026-04-30 13:29 38.19548 -5.45843 17082 ft 392 kts 41°
2026-04-30 13:30 38.25900 -5.38732 17049 ft 406 kts 43°
2026-04-30 13:31 38.30014 -5.33816 17054 ft 405 kts 43°
2026-04-30 13:31 38.36272 -5.26584 17057 ft 405 kts 42°
2026-04-30 13:32 38.40483 -5.21785 17062 ft 406 kts 42°
2026-04-30 13:32 38.44699 -5.16971 17070 ft 407 kts 42°
2026-04-30 13:33 38.48963 -5.12204 17053 ft 408 kts 34°
2026-04-30 13:33 38.54285 -5.10198 17063 ft 402 kts 356°
2026-04-30 13:34 38.57073 -5.10437 17073 ft 402 kts 353°
2026-04-30 13:34 38.65400 -5.11410 17062 ft 402 kts 353°
2026-04-30 13:35 38.68189 -5.11718 17062 ft 403 kts 353°
2026-04-30 13:35 38.73774 -5.12303 17071 ft 403 kts 353°
2026-04-30 13:36 38.79351 -5.12873 17057 ft 402 kts 353°
2026-04-30 13:36 38.82166 -5.13160 17279 ft 408 kts 353°
2026-04-30 13:36 38.87881 -5.13746 18157 ft 423 kts 354°
2026-04-30 13:37 38.90861 -5.14052 18389 ft 433 kts 354°
2026-04-30 13:37 38.96726 -5.14609 20193 ft 416 kts 358°
2026-04-30 13:38 39.02387 -5.13040 21264 ft 424 kts 25°
2026-04-30 13:38 39.04967 -5.11132 21647 ft 431 kts 32°
2026-04-30 13:38 39.10038 -5.06860 22507 ft 439 kts 33°
2026-04-30 13:39 39.15164 -5.02509 23513 ft 443 kts 33°
2026-04-30 13:39 39.20377 -4.98143 24236 ft 450 kts 33°
2026-04-30 13:40 39.23017 -4.95945 24630 ft 452 kts 33°
2026-04-30 13:40 39.25670 -4.93740 25020 ft 455 kts 33°
2026-04-30 13:40 39.28335 -4.91526 25403 ft 457 kts 33°
2026-04-30 13:40 39.31011 -4.89307 25760 ft 459 kts 32°
2026-04-30 13:41 39.33793 -4.87355 26089 ft 462 kts 26°
2026-04-30 13:41 39.36698 -4.85564 26428 ft 464 kts 25°
2026-04-30 13:41 39.39647 -4.83824 26762 ft 467 kts 24°
2026-04-30 13:41 39.42617 -4.82086 27087 ft 470 kts 24°
2026-04-30 13:42 39.45597 -4.80330 27416 ft 472 kts 24°
2026-04-30 13:42 39.48591 -4.78544 27711 ft 475 kts 25°
2026-04-30 13:42 39.54607 -4.74899 28342 ft 479 kts 25°
2026-04-30 13:43 39.57634 -4.73048 28626 ft 482 kts 25°
2026-04-30 13:43 39.60673 -4.71184 28918 ft 484 kts 25°
2026-04-30 13:43 39.63720 -4.69311 29196 ft 486 kts 25°
2026-04-30 13:43 39.66788 -4.67425 29459 ft 489 kts 25°
2026-04-30 13:44 39.69864 -4.65533 29772 ft 490 kts 25°
2026-04-30 13:44 39.72942 -4.63638 30181 ft 488 kts 25°
2026-04-30 13:44 39.76006 -4.61750 30568 ft 487 kts 25°
2026-04-30 13:44 39.79064 -4.59864 30886 ft 486 kts 25°
2026-04-30 13:45 39.85175 -4.56091 31495 ft 486 kts 25°
2026-04-30 13:45 39.88226 -4.54205 31823 ft 485 kts 25°
2026-04-30 13:45 39.91269 -4.52321 32154 ft 484 kts 25°
2026-04-30 13:46 39.94310 -4.50437 32466 ft 484 kts 25°
2026-04-30 13:46 39.97346 -4.48554 32768 ft 483 kts 25°
2026-04-30 13:46 40.00380 -4.46670 33073 ft 482 kts 25°
2026-04-30 13:46 40.03407 -4.44789 33389 ft 482 kts 25°
2026-04-30 13:47 40.06429 -4.42910 33689 ft 481 kts 25°
2026-04-30 13:47 40.09446 -4.41031 33997 ft 480 kts 25°
2026-04-30 13:47 40.12459 -4.39153 34251 ft 480 kts 25°
2026-04-30 13:47 40.15472 -4.37273 34484 ft 479 kts 25°
2026-04-30 13:48 40.17464 -4.36030 34627 ft 480 kts 25°
2026-04-30 13:48 40.21453 -4.33536 34915 ft 480 kts 25°
2026-04-30 13:48 40.24461 -4.31655 35140 ft 479 kts 25°
2026-04-30 13:48 40.27466 -4.29772 35392 ft 478 kts 25°
2026-04-30 13:49 40.30467 -4.27891 35622 ft 478 kts 25°
2026-04-30 13:49 40.32490 -4.26622 35767 ft 478 kts 25°
2026-04-30 13:49 40.35491 -4.24737 35960 ft 478 kts 25°
2026-04-30 13:49 40.38495 -4.22849 36089 ft 480 kts 25°
2026-04-30 13:50 40.41516 -4.20948 36085 ft 483 kts 25°
2026-04-30 13:50 40.50697 -4.15160 36102 ft 492 kts 24°
2026-04-30 13:51 40.56895 -4.11242 36103 ft 495 kts 24°
2026-04-30 13:51 40.63063 -4.07334 36114 ft 496 kts 24°
2026-04-30 13:52 40.69286 -4.03384 36116 ft 496 kts 24°
2026-04-30 13:52 40.75506 -3.99427 36115 ft 496 kts 24°
2026-04-30 13:53 40.81761 -3.95440 36113 ft 495 kts 24°
2026-04-30 13:53 40.87916 -3.91508 36113 ft 494 kts 24°
2026-04-30 13:54 40.94094 -3.87553 36114 ft 493 kts 24°
2026-04-30 13:54 41.00266 -3.83594 36101 ft 493 kts 24°
2026-04-30 13:55 41.06430 -3.79633 36096 ft 492 kts 24°
2026-04-30 13:55 41.12419 -3.75212 36093 ft 494 kts 30°
2026-04-30 13:56 41.18245 -3.70380 36090 ft 494 kts 30°
2026-04-30 13:56 41.24068 -3.65536 36079 ft 494 kts 30°
2026-04-30 13:57 41.29908 -3.60751 36087 ft 493 kts 29°
2026-04-30 13:57 41.35765 -3.55985 36076 ft 493 kts 29°
2026-04-30 13:58 41.44548 -3.48829 36076 ft 493 kts 29°
2026-04-30 13:59 41.50394 -3.44048 36078 ft 493 kts 29°
2026-04-30 13:59 41.56234 -3.39260 36075 ft 493 kts 28°
2026-04-30 14:00 41.62071 -3.34463 36068 ft 492 kts 28°
2026-04-30 14:00 41.70821 -3.27256 36077 ft 492 kts 28°
2026-04-30 14:01 41.76650 -3.22440 36070 ft 492 kts 28°
2026-04-30 14:01 41.82476 -3.17617 36075 ft 492 kts 28°
2026-04-30 14:02 41.88264 -3.12816 36076 ft 492 kts 28°
2026-04-30 14:02 41.94087 -3.07975 36072 ft 492 kts 28°
2026-04-30 14:03 41.99908 -3.03124 36069 ft 493 kts 28°
2026-04-30 14:03 42.05732 -2.98262 36065 ft 493 kts 28°
2026-04-30 14:04 42.11552 -2.93390 36075 ft 493 kts 28°
2026-04-30 14:04 42.17374 -2.88508 36070 ft 493 kts 28°
2026-04-30 14:05 42.23190 -2.83619 36057 ft 493 kts 28°
2026-04-30 14:05 42.29012 -2.78713 36056 ft 493 kts 28°
2026-04-30 14:06 42.37740 -2.71341 36067 ft 493 kts 28°
2026-04-30 14:07 42.46452 -2.63958 36069 ft 493 kts 28°
2026-04-30 14:08 42.55161 -2.56552 36063 ft 492 kts 28°
2026-04-30 14:08 42.63847 -2.49140 36067 ft 491 kts 28°
2026-04-30 14:09 42.69632 -2.44191 36058 ft 491 kts 28°
2026-04-30 14:10 42.78260 -2.36788 36057 ft 491 kts 28°
2026-04-30 14:10 42.84030 -2.31824 36061 ft 491 kts 28°
2026-04-30 14:11 42.89800 -2.26848 36060 ft 490 kts 28°
2026-04-30 14:11 42.95558 -2.21871 36061 ft 489 kts 28°
2026-04-30 14:12 43.01303 -2.16894 36070 ft 489 kts 28°
2026-04-30 14:12 43.07049 -2.11907 36076 ft 489 kts 28°
2026-04-30 14:13 43.12549 -2.06367 36096 ft 495 kts 38°
2026-04-30 14:13 43.17614 -1.99965 36095 ft 496 kts 39°
2026-04-30 14:14 43.22681 -1.93551 36078 ft 496 kts 38°
2026-04-30 14:14 43.27788 -1.87193 36100 ft 495 kts 38°
2026-04-30 14:15 43.33104 -1.81285 36100 ft 487 kts 26°
2026-04-30 14:15 43.39011 -1.76785 36101 ft 485 kts 26°
2026-04-30 14:16 43.44731 -1.71805 36113 ft 487 kts 30°
2026-04-30 14:16 43.50345 -1.66564 36103 ft 487 kts 30°
2026-04-30 14:17 43.55972 -1.61360 36104 ft 487 kts 30°
2026-04-30 14:17 43.61620 -1.56211 36102 ft 487 kts 29°
2026-04-30 14:18 43.67276 -1.51072 36098 ft 487 kts 29°
2026-04-30 14:18 43.75756 -1.43343 36081 ft 487 kts 30°
2026-04-30 14:19 43.84196 -1.35617 36083 ft 487 kts 30°
2026-04-30 14:20 43.89842 -1.30433 36079 ft 487 kts 30°
2026-04-30 14:20 43.98311 -1.22634 36085 ft 487 kts 30°
2026-04-30 14:21 44.03955 -1.17422 36087 ft 487 kts 30°
2026-04-30 14:22 44.12402 -1.09598 36095 ft 486 kts 31°
2026-04-30 14:22 44.20829 -1.01766 36099 ft 485 kts 31°
2026-04-30 14:23 44.32051 -0.91292 36097 ft 485 kts 31°
2026-04-30 14:24 44.40507 -0.83534 36085 ft 483 kts 25°
2026-04-30 14:25 44.52778 -0.76019 36091 ft 482 kts 21°
2026-04-30 14:26 44.62015 -0.70460 36101 ft 482 kts 22°
2026-04-30 14:27 44.71199 -0.64824 36093 ft 483 kts 22°
2026-04-30 14:27 44.77347 -0.61035 36097 ft 482 kts 22°
2026-04-30 14:28 44.86550 -0.55349 36098 ft 481 kts 22°
2026-04-30 14:28 44.92672 -0.51558 36098 ft 480 kts 22°
2026-04-30 14:29 45.03881 -0.44593 36090 ft 478 kts 23°
2026-04-30 14:31 45.20030 -0.34506 36094 ft 475 kts 24°
2026-04-30 14:31 45.29086 -0.28822 36097 ft 474 kts 24°
2026-04-30 14:32 45.38134 -0.23123 36100 ft 474 kts 24°
2026-04-30 14:33 45.44159 -0.19317 36100 ft 474 kts 24°
2026-04-30 14:33 45.53197 -0.13591 36113 ft 474 kts 24°
2026-04-30 14:34 45.59225 -0.09761 36096 ft 474 kts 24°
2026-04-30 14:34 45.65254 -0.05920 36082 ft 475 kts 25°
2026-04-30 14:35 45.74334 -0.00270 36096 ft 474 kts 23°
2026-04-30 14:36 45.80420 0.03372 36107 ft 474 kts 23°
2026-04-30 14:36 45.85475 0.06410 36110 ft 474 kts 24°
2026-04-30 14:37 45.91542 0.10086 36094 ft 474 kts 24°
2026-04-30 14:37 45.98595 0.14384 36096 ft 474 kts 24°
2026-04-30 14:38 46.03677 0.17491 36095 ft 474 kts 24°
2026-04-30 14:38 46.09737 0.21203 36105 ft 473 kts 24°
2026-04-30 14:39 46.15795 0.24921 36092 ft 473 kts 24°
2026-04-30 14:39 46.21847 0.28645 36096 ft 473 kts 24°
2026-04-30 14:40 46.30876 0.34217 36093 ft 472 kts 24°
2026-04-30 14:40 46.36952 0.37978 36098 ft 472 kts 24°
2026-04-30 14:41 46.42943 0.41695 36098 ft 471 kts 24°
2026-04-30 14:41 46.48970 0.45444 36097 ft 471 kts 24°
2026-04-30 14:42 46.54995 0.49201 36099 ft 471 kts 24°
2026-04-30 14:42 46.61020 0.52967 36100 ft 471 kts 24°
2026-04-30 14:43 46.67034 0.56735 36104 ft 471 kts 24°
2026-04-30 14:43 46.73084 0.60535 36103 ft 471 kts 24°
2026-04-30 14:44 46.79100 0.64323 36079 ft 471 kts 24°
2026-04-30 14:44 46.85104 0.68112 36082 ft 470 kts 24°
2026-04-30 14:45 46.91056 0.71878 36082 ft 469 kts 25°
2026-04-30 14:45 46.97039 0.75672 36086 ft 468 kts 25°
2026-04-30 14:46 47.03018 0.79473 36082 ft 468 kts 25°
2026-04-30 14:46 47.08993 0.83282 36081 ft 468 kts 25°
2026-04-30 14:47 47.14961 0.87095 36079 ft 468 kts 25°
2026-04-30 14:47 47.20932 0.90919 36073 ft 468 kts 25°
2026-04-30 14:48 47.26890 0.94745 36079 ft 467 kts 25°
2026-04-30 14:48 47.32845 0.98577 36072 ft 467 kts 25°
2026-04-30 14:49 47.38801 1.02420 36073 ft 467 kts 25°
2026-04-30 14:49 47.44755 1.06271 36074 ft 467 kts 25°
2026-04-30 14:50 47.53687 1.12067 36066 ft 467 kts 25°
2026-04-30 14:51 47.62618 1.17884 36067 ft 467 kts 25°
2026-04-30 14:52 47.71545 1.23719 36069 ft 467 kts 25°
2026-04-30 14:52 47.80463 1.29570 36073 ft 467 kts 25°
2026-04-30 14:53 47.89371 1.35441 36077 ft 467 kts 25°
2026-04-30 14:54 48.01246 1.43295 36090 ft 467 kts 25°
2026-04-30 14:55 48.10112 1.49181 36097 ft 467 kts 25°
2026-04-30 14:56 48.21977 1.57104 36097 ft 467 kts 25°
2026-04-30 14:57 48.30884 1.63077 36100 ft 467 kts 26°
2026-04-30 14:58 48.42753 1.71069 36102 ft 468 kts 26°
2026-04-30 14:58 48.51655 1.77092 36110 ft 468 kts 26°
2026-04-30 15:00 48.66490 1.87179 36121 ft 468 kts 26°
2026-04-30 15:01 48.78162 1.95720 36126 ft 467 kts 30°
2026-04-30 15:01 48.86771 2.02754 36136 ft 466 kts 30°
2026-04-30 15:02 48.92503 2.07387 36131 ft 466 kts 30°
2026-04-30 15:03 49.06830 2.18917 36126 ft 465 kts 30°
2026-04-30 15:04 49.21115 2.30487 36120 ft 465 kts 30°
2026-04-30 15:06 49.35358 2.42101 36163 ft 463 kts 31°
2026-04-30 15:07 49.46711 2.51414 36155 ft 462 kts 31°
2026-04-30 15:08 49.58009 2.60730 36168 ft 460 kts 31°
2026-04-30 15:09 49.72074 2.72399 36188 ft 459 kts 31°
2026-04-30 15:10 49.83303 2.81770 36187 ft 459 kts 31°
2026-04-30 15:11 50.00115 2.95896 36198 ft 460 kts 31°
2026-04-30 15:13 50.14118 3.07745 36192 ft 449 kts 31°
2026-04-30 15:14 50.33285 3.22505 34650 ft 436 kts 27°
2026-04-30 15:16 50.47147 3.32716 31652 ft 432 kts 30°
2026-04-30 15:17 50.57882 3.40684 29734 ft 422 kts 26°
2026-04-30 15:18 50.71066 3.49641 27298 ft 405 kts 27°
2026-04-30 15:19 50.78717 3.54950 25930 ft 396 kts 27°